Mayfld Grav Cnty AP, Mayfield, KY

10:20 PM CDT on September 25, 2017 (GMT -0500)
Mayfld Grav Cnty AP, Mayfield

Weather History for KM25 - March, 2014

Change the Weather History Date:

Friday, March 7, 2014

  Actual Average (KPAH) Record (KPAH)
Temperature  
Mean Temperature 38 °F -  
Max Temperature 50 °F 54 °F 80 °F (2000)
Min Temperature 26 °F 32 °F 5 °F (1967)
Degree Days  
Heating Degree Days 27    
Moisture  
Dew Point 30 °F    
Average Humidity 76    
Maximum Humidity 100    
Minimum Humidity 50    
Precipitation  
Precipitation 0.00 in - - ()
Sea Level Pressure  
Sea Level Pressure 30.05 in    
Wind  
Wind Speed 3 mph (WSW)    
Max Wind Speed 6 mph    
Max Gust Speed -    
Visibility 9 miles    
Events      
Averages and records for this station are not official NWS values.
T = Trace of Precipitation, MM = Missing Value Source: NWS Daily Summary

Daily Weather History Graph

Daily Weather History Graph

Search for Another Location

Airport or City:

Trip Planner

Search our weather history database for the weather conditions in past years. The results will help you decide how hot, cold, wet, or windy it might be!

Date:

Astronomy

Mar. 07, 2014 Rise Set
Actual Time 6:16 AM CST 5:54 PM CST
Civil Twilight 5:50 AM CST 6:20 PM CST
Nautical Twilight 5:20 AM CST 6:50 PM CST
Astronomical Twilight 4:50 AM CST 7:20 PM CST
Moon 10:18 AM CST (3/7) No Moon Set
Length of Visible Light 12h 29m
Length of Day
11h 37m
Waxing Crescent, 42% of the Moon is Illuminated
Mar 7
Waxing Crescent
Mar 8
First Quarter
Mar 16
Full
Mar 23
Last Quarter
Mar 30
New

Hourly Weather History & Observations

Time (CST) Temp. Windchill Dew Point Humidity Pressure Visibility Wind Dir Wind Speed Gust Speed Precip Events Conditions
12:15 AM 32.0 °F 27.5 °F 28.4 °F 87% 30.06 in 10.0 mi East 4.6 mph - N/A   Clear
12:35 AM 32.0 °F 28.7 °F 28.4 °F 87% 30.05 in 10.0 mi East 3.5 mph - N/A   Clear
12:55 AM 30.2 °F - 28.4 °F 93% 30.05 in 10.0 mi Calm Calm - N/A   Clear
1:15 AM 32.0 °F - 28.4 °F 87% 30.05 in 10.0 mi Calm Calm - N/A   Clear
1:35 AM 32.0 °F - 28.4 °F 87% 30.05 in 10.0 mi Calm Calm - N/A   Clear
1:55 AM 30.2 °F - 28.4 °F 93% 30.05 in 7.0 mi Calm Calm - N/A   Clear
2:15 AM 30.2 °F 26.7 °F 28.4 °F 93% 30.05 in 7.0 mi NW 3.5 mph - N/A   Clear
2:35 AM 30.2 °F 25.4 °F 28.4 °F 93% 30.05 in 7.0 mi NNW 4.6 mph - N/A   Clear
2:55 AM 30.2 °F 24.3 °F 28.4 °F 93% 30.05 in 7.0 mi NW 5.8 mph - N/A   Clear
3:15 AM 30.2 °F 25.4 °F 28.4 °F 93% 30.04 in 7.0 mi NNW 4.6 mph - N/A   Clear
3:35 AM 30.2 °F 26.7 °F 28.4 °F 93% 30.05 in 7.0 mi NNW 3.5 mph - N/A   Clear
3:55 AM 30.2 °F 25.4 °F 28.4 °F 93% 30.06 in 7.0 mi NNW 4.6 mph - N/A   Clear
4:15 AM 30.2 °F 26.7 °F 28.4 °F 93% 30.06 in 7.0 mi NNW 3.5 mph - N/A   Clear
4:35 AM 30.2 °F 25.4 °F 28.4 °F 93% 30.06 in 7.0 mi NW 4.6 mph - N/A   Clear
4:55 AM 30.2 °F 25.4 °F 28.4 °F 93% 30.06 in 7.0 mi NW 4.6 mph - N/A   Clear
5:15 AM 28.4 °F - 28.4 °F 100% 30.05 in 5.0 mi Calm Calm - N/A   Clear
5:35 AM 28.4 °F 24.6 °F 28.4 °F 100% 30.05 in 5.0 mi NW 3.5 mph - N/A   Clear
5:55 AM 28.4 °F - 28.4 °F 100% 30.05 in 5.0 mi Calm Calm - N/A   Clear
6:15 AM 28.4 °F - 26.6 °F 93% 30.04 in 5.0 mi Calm Calm - N/A   Clear
6:35 AM 26.6 °F - 26.6 °F 100% 30.05 in 3.0 mi Calm Calm - N/A   Clear
6:55 AM 28.4 °F - 26.6 °F 93% 30.06 in 3.0 mi Calm Calm - N/A   Clear
7:15 AM 30.2 °F - 28.4 °F 93% 30.06 in 4.0 mi Calm Calm - N/A   Clear
7:35 AM 32.0 °F - 28.4 °F 87% 30.06 in 5.0 mi Calm Calm - N/A   Clear
7:55 AM 32.0 °F - 30.2 °F 93% 30.06 in 7.0 mi Calm Calm - N/A   Clear
8:15 AM 33.8 °F - 28.4 °F 81% 30.06 in 7.0 mi Calm Calm - N/A   Clear
8:35 AM 35.6 °F - 30.2 °F 81% 30.08 in 10.0 mi Calm Calm - N/A   Clear
8:55 AM 37.4 °F - 30.2 °F 75% 30.08 in 10.0 mi Calm Calm - N/A   Clear
9:15 AM 41.0 °F - 30.2 °F 65% 30.08 in 10.0 mi Calm Calm - N/A   Clear
9:35 AM 41.0 °F 38.0 °F 30.2 °F 65% 30.08 in 10.0 mi South 4.6 mph - N/A   Clear
9:55 AM 42.8 °F 40.1 °F 30.2 °F 61% 30.09 in 10.0 mi WSW 4.6 mph - N/A   Clear
10:15 AM 42.8 °F 41.1 °F 32.0 °F 66% 30.08 in 10.0 mi SW 3.5 mph - N/A   Clear
10:35 AM 44.6 °F - 32.0 °F 61% 30.08 in 10.0 mi Calm Calm - N/A   Clear
10:55 AM 46.4 °F - 32.0 °F 57% 30.08 in 10.0 mi Calm Calm - N/A   Clear
11:15 AM 46.4 °F 44.3 °F 32.0 °F 57% 30.09 in 10.0 mi West 4.6 mph - N/A   Clear
11:35 AM 46.4 °F 44.3 °F 32.0 °F 57% 30.08 in 10.0 mi WSW 4.6 mph - N/A   Clear
11:55 AM 48.2 °F - 32.0 °F 54% 30.07 in 10.0 mi Calm Calm - N/A   Clear
12:15 PM 46.4 °F - 32.0 °F 57% 30.06 in 10.0 mi Calm Calm - N/A   Clear
12:35 PM 48.2 °F - 32.0 °F 54% 30.06 in 10.0 mi WSW 4.6 mph - N/A   Clear
12:55 PM 48.2 °F - 32.0 °F 54% 30.06 in 10.0 mi West 4.6 mph - N/A   Clear
1:15 PM 48.2 °F - 32.0 °F 54% 30.05 in 10.0 mi West 4.6 mph - N/A   Clear
1:35 PM 48.2 °F - 32.0 °F 54% 30.05 in 10.0 mi West 5.8 mph - N/A   Clear
1:55 PM 50.0 °F - 32.0 °F 50% 30.04 in 10.0 mi West 5.8 mph - N/A   Clear
2:15 PM 50.0 °F - 32.0 °F 50% 30.03 in 10.0 mi West 4.6 mph - N/A   Clear
2:35 PM 50.0 °F - 32.0 °F 50% 30.03 in 10.0 mi West 3.5 mph - N/A   Clear
2:55 PM 50.0 °F - 32.0 °F 50% 30.02 in 10.0 mi Calm Calm - N/A   Clear
5:15 PM 48.2 °F - 32.0 °F 54% 30.00 in 10.0 mi Calm Calm - N/A   Clear
5:35 PM 46.4 °F - 32.0 °F 57% 30.01 in 10.0 mi Calm Calm - N/A   Clear
5:55 PM 44.6 °F - 32.0 °F 61% 30.00 in 10.0 mi Calm Calm - N/A   Clear
6:15 PM 42.8 °F - 32.0 °F 66% 30.00 in 10.0 mi Calm Calm - N/A   Clear
6:35 PM 41.0 °F - 32.0 °F 70% 30.00 in 10.0 mi Calm Calm - N/A   Clear
6:55 PM 39.2 °F 37.0 °F 32.0 °F 75% 30.01 in 10.0 mi South 3.5 mph - N/A   Clear
7:15 PM 39.2 °F 35.0 °F 32.0 °F 75% 30.00 in 10.0 mi SSE 5.8 mph - N/A   Clear
7:35 PM 41.0 °F 37.1 °F 32.0 °F 70% 30.01 in 10.0 mi South 5.8 mph - N/A   Clear
7:55 PM 42.8 °F 39.3 °F 32.0 °F 66% 30.02 in 10.0 mi SW 5.8 mph - N/A   Clear
8:15 PM 41.0 °F 38.0 °F 32.0 °F 70% 30.02 in 10.0 mi SSW 4.6 mph - N/A   Clear
8:35 PM 39.2 °F 35.0 °F 32.0 °F 75% 30.02 in 10.0 mi SSW 5.8 mph - N/A   Clear
8:55 PM 39.2 °F 35.9 °F 32.0 °F 75% 30.02 in 10.0 mi SSW 4.6 mph - N/A   Clear
9:15 PM 41.0 °F 38.0 °F 32.0 °F 70% 30.02 in 10.0 mi SSW 4.6 mph - N/A   Clear
9:35 PM 39.2 °F 35.9 °F 32.0 °F 75% 30.03 in 10.0 mi SSW 4.6 mph - N/A   Clear
9:55 PM 41.0 °F 37.1 °F 32.0 °F 70% 30.03 in 10.0 mi SW 5.8 mph - N/A   Clear
10:15 PM 39.2 °F 35.9 °F 32.0 °F 75% 30.03 in 10.0 mi SSW 4.6 mph - N/A   Clear
10:35 PM 37.4 °F 32.8 °F 32.0 °F 81% 30.03 in 10.0 mi SSW 5.8 mph - N/A   Clear
10:55 PM 37.4 °F 33.8 °F 32.0 °F 81% 30.02 in 10.0 mi South 4.6 mph - N/A   Clear
11:15 PM 37.4 °F 34.9 °F 32.0 °F 81% 30.03 in 10.0 mi SSW 3.5 mph - N/A   Clear
11:35 PM 35.6 °F 32.8 °F 32.0 °F 87% 30.03 in 10.0 mi South 3.5 mph - N/A   Clear
11:55 PM 35.6 °F 31.7 °F 32.0 °F 87% 30.03 in 10.0 mi South 4.6 mph - N/A   Clear